Alma, GA

12:53 AM EST on November 19, 2019 (GMT -0500)
Bacon County

Weather History for KAMG - August, 2019

Change the Weather History Date:

Tuesday, August 13, 2019

  Actual Average Record
Temperature  
Mean Temperature 86 °F 82 °F  
Max Temperature 96 °F 91 °F 100 °F (1954)
Min Temperature 76 °F 72 °F 60 °F (1962)
Degree Days  
Heating Degree Days 0 0  
Month to date heating degree days 0 0  
Since 1 June heating degree days 0 0  
Since 1 July heating degree days 0 0  
Cooling Degree Days 21 17  
Month to date cooling degree days 250 221  
Year to date cooling degree days 1974 1623  
Since 1 June cooling degree days 1308 1193  
Growing Degree Days 36 (Base 50)    
Moisture  
Dew Point 76 °F    
Average Humidity 72    
Maximum Humidity 97    
Minimum Humidity 46    
Precipitation  
Precipitation 0.00 in 0.19 in 1.90 in (1969)
Month to date precipitation 0.79 2.49  
Year to date precipitation 22.14 31.29  
Snow  
Snow 0.00 in 0.00 in 0.00 in ()
Month to date snowfall 0.0 0.0  
Since 1 June snowfall 0.0 0.0  
Since 1 July snowfall 0.0 0.0  
Snow Depth 0.00 in    
Sea Level Pressure  
Sea Level Pressure 29.91 in    
Wind  
Wind Speed 3 mph (SSE)    
Max Wind Speed 9 mph    
Max Gust Speed 12 mph    
Visibility 5 miles    
Events Fog    
T = Trace of Precipitation, MM = Missing Value Source: NWS Daily Summary

Daily Weather History Graph

Daily Weather History Graph

Search for Another Location

Airport or City:

Astronomy

Aug. 13, 2019 Rise Set
Actual Time 6:53 AM EDT 8:15 PM EDT
Civil Twilight 6:28 AM EDT 8:41 PM EDT
Nautical Twilight 5:57 AM EDT 9:11 PM EDT
Astronomical Twilight 5:25 AM EDT 9:43 PM EDT
Moon 7:22 PM EDT (8/13) 5:02 AM EDT (8/13)
Length of Visible Light 14h 13m
Length of Day
13h 21m
Waxing Gibbous, 97% of the Moon is Illuminated
Aug 13
Waxing Gibbous
Aug 15
Full
Aug 23
Last Quarter
Aug 30
New
Sep 5
First Quarter

Hourly Weather History & Observations

Time (EDT) Temp. Heat Index Dew Point Humidity Pressure Visibility Wind Dir Wind Speed Gust Speed Precip Events Conditions
12:53 AM 80.1 °F 85.8 °F 77.0 °F 90% 29.92 in 5.0 mi Calm Calm - N/A   Clear
1:35 AM 78.1 °F - 75.9 °F 93% 29.92 in 3.0 mi Calm Calm - N/A   Clear
1:41 AM 78.1 °F - 75.9 °F 93% 29.92 in 1.8 mi Calm Calm - N/A   Clear
1:53 AM 78.1 °F - 75.9 °F 93% 29.91 in 2.5 mi Calm Calm - N/A   Clear
2:35 AM 78.1 °F - 75.9 °F 93% 29.91 in 3.0 mi Calm Calm - N/A   Scattered Clouds
2:39 AM 78.1 °F - 75.9 °F 93% 29.91 in 2.5 mi Calm Calm - N/A   Mostly Cloudy
2:53 AM 78.1 °F - 75.9 °F 93% 29.90 in 2.5 mi Calm Calm - N/A   Mostly Cloudy
3:20 AM 78.1 °F - 75.9 °F 93% 29.90 in 2.0 mi Calm Calm - N/A   Scattered Clouds
3:28 AM 78.1 °F - 75.0 °F 90% 29.90 in 1.5 mi Calm Calm - N/A   Partly Cloudy
3:53 AM 77.0 °F - 75.0 °F 94% 29.90 in 1.0 mi Calm Calm - N/A   Clear
4:00 AM 77.0 °F - 75.0 °F 94% 29.91 in 0.8 mi Calm Calm - N/A   Clear
4:12 AM 77.0 °F - 75.0 °F 94% 29.91 in 0.5 mi Calm Calm - N/A Fog Fog
4:19 AM 77.0 °F - 75.0 °F 94% 29.91 in 1.0 mi Calm Calm - N/A   Mist
4:28 AM 75.9 °F - 73.9 °F 94% 29.91 in 1.2 mi Calm Calm - N/A   Partly Cloudy
4:49 AM 77.0 °F - 75.2 °F 94% 29.91 in 2.0 mi Calm Calm - N/A   Mostly Cloudy
4:53 AM 77.0 °F - 75.9 °F 96% 29.91 in 4.0 mi Calm Calm - N/A   Mostly Cloudy
5:04 AM 78.1 °F - 75.9 °F 93% 29.91 in 2.5 mi Calm Calm - N/A   Mostly Cloudy
5:53 AM 78.1 °F - 75.9 °F 93% 29.91 in 1.8 mi Calm Calm - N/A   Overcast
6:02 AM 78.1 °F - 75.9 °F 93% 29.92 in 2.0 mi Calm Calm - N/A   Overcast
6:10 AM 78.1 °F - 75.9 °F 93% 29.91 in 1.5 mi Calm Calm - N/A   Overcast
6:26 AM 77.0 °F - 75.9 °F 96% 29.91 in 0.8 mi East 3.5 mph - N/A   Mist
6:33 AM 77.0 °F - 75.0 °F 94% 29.91 in 1.0 mi East 3.5 mph - N/A   Mist
6:48 AM 77.0 °F - 75.2 °F 94% 29.91 in 0.8 mi ENE 3.5 mph - N/A   Mist
6:53 AM 77.0 °F - 75.0 °F 94% 29.91 in 0.8 mi Calm Calm - N/A   Mist
7:41 AM 78.1 °F - 77.0 °F 96% 29.92 in 2.0 mi Calm Calm - N/A   Overcast
7:53 AM 79.0 °F - 77.0 °F 94% 29.92 in 2.5 mi Calm Calm - N/A   Overcast
8:08 AM 79.0 °F - 78.1 °F 97% 29.93 in 0.8 mi SE 4.6 mph - N/A   Overcast
8:20 AM 79.0 °F - 78.1 °F 97% 29.94 in 0.2 mi Calm Calm - N/A Fog Fog
8:30 AM 80.1 °F 86.4 °F 78.1 °F 94% 29.94 in 0.5 mi ESE 4.6 mph - N/A Fog Fog
8:42 AM 80.1 °F 86.4 °F 78.1 °F 94% 29.94 in 1.5 mi Calm Calm - N/A   Overcast
8:53 AM 80.1 °F 86.4 °F 78.1 °F 94% 29.94 in 2.5 mi SSE 4.6 mph - N/A   Overcast
9:01 AM 80.1 °F 86.4 °F 78.1 °F 94% 29.95 in 4.0 mi South 4.6 mph - N/A   Overcast
9:16 AM 81.0 °F 88.6 °F 78.1 °F 91% 29.95 in 5.0 mi South 3.5 mph - N/A   Overcast
9:50 AM 84.2 °F 96.1 °F 78.8 °F 84% 29.94 in 8.0 mi Variable 3.5 mph - N/A   Scattered Clouds
9:53 AM 84.0 °F 94.8 °F 78.1 °F 82% 29.94 in 8.0 mi South 4.6 mph - N/A   Scattered Clouds
10:53 AM 87.1 °F 99.8 °F 78.1 °F 74% 29.94 in 10.0 mi Calm Calm - N/A   Partly Cloudy
11:53 AM 86.0 °F 96.0 °F 75.9 °F 72% 29.95 in 9.0 mi Variable 3.5 mph - N/A   Mostly Cloudy
12:02 PM 88.0 °F 98.5 °F 75.9 °F 67% 29.95 in 9.0 mi North - - N/A   Mostly Cloudy
12:53 PM 91.0 °F 101.6 °F 75.0 °F 59% 29.94 in 10.0 mi SSW 4.6 mph - N/A   Scattered Clouds
1:53 PM 91.9 °F 101.3 °F 73.9 °F 55% 29.91 in 10.0 mi East 3.5 mph - N/A   Clear
2:53 PM 93.9 °F 104.0 °F 73.9 °F 52% 29.89 in 10.0 mi WSW 3.5 mph - N/A   Partly Cloudy
3:53 PM 96.1 °F 105.6 °F 73.0 °F 47% 29.87 in 10.0 mi Calm Calm - N/A   Partly Cloudy
4:53 PM 96.1 °F 105.6 °F 73.0 °F 47% 29.85 in 10.0 mi SW 4.6 mph - N/A   Clear
5:53 PM 95.0 °F 103.2 °F 72.0 °F 47% 29.85 in 10.0 mi SE 6.9 mph - N/A   Clear
6:53 PM 93.9 °F 102.1 °F 72.0 °F 49% 29.86 in 10.0 mi SSE 3.5 mph - N/A   Clear
7:53 PM 84.0 °F 92.6 °F 75.9 °F 76% 29.86 in 10.0 mi SSE 4.6 mph - N/A   Clear
8:53 PM 81.0 °F 86.7 °F 75.0 °F 82% 29.88 in 10.0 mi Calm Calm - N/A   Clear
9:53 PM 84.0 °F 92.6 °F 75.9 °F 76% 29.89 in 10.0 mi SSE 4.6 mph - N/A   Clear
10:53 PM 82.9 °F 90.8 °F 75.9 °F 79% 29.90 in 10.0 mi SE 5.8 mph - N/A   Clear
11:53 PM 82.0 °F 89.4 °F 75.9 °F 82% 29.90 in 10.0 mi SE 3.5 mph - N/A   Clear